Year,Month,Day,Hour,Minute,Value (Times are PST for temperature in C)
2015,03,31,09,53,8.70
2015,03,31,09,54,8.70
2015,03,31,09,55,8.80
2015,03,31,09,56,8.90
2015,03,31,09,57,9.00
2015,03,31,09,58,9.00
2015,03,31,09,59,9.00
2015,03,31,10,00,9.00
2015,03,31,10,01,9.00
2015,03,31,10,02,9.00
2015,03,31,10,03,9.00
2015,03,31,10,04,9.10
2015,03,31,10,05,9.20
2015,03,31,10,06,9.30
2015,03,31,10,07,9.40
2015,03,31,10,08,9.50
2015,03,31,10,09,9.70
2015,03,31,10,10,9.70
2015,03,31,10,11,9.70
2015,03,31,10,12,9.80
2015,03,31,10,13,9.90
2015,03,31,10,14,9.90
2015,03,31,10,15,9.90
2015,03,31,10,16,9.90
2015,03,31,10,17,10.00
2015,03,31,10,18,10.00
2015,03,31,10,19,10.10
2015,03,31,10,20,10.10
2015,03,31,10,21,10.20
2015,03,31,10,22,10.20
2015,03,31,10,23,10.20
2015,03,31,10,24,10.20
2015,03,31,10,25,10.20
2015,03,31,10,26,10.20
2015,03,31,10,27,10.10
2015,03,31,10,28,10.10
2015,03,31,10,29,10.10
2015,03,31,10,30,10.10
2015,03,31,10,31,10.20
2015,03,31,10,32,10.20
2015,03,31,10,33,10.20
2015,03,31,10,34,10.20
2015,03,31,10,35,10.10
2015,03,31,10,36,10.00
2015,03,31,10,37,9.90
2015,03,31,10,38,9.90
2015,03,31,10,39,9.90
2015,03,31,10,40,9.90
2015,03,31,10,41,9.80
2015,03,31,10,42,9.80
2015,03,31,10,43,9.90
2015,03,31,10,44,10.00
2015,03,31,10,45,10.10
2015,03,31,10,46,10.10
2015,03,31,10,47,10.10
2015,03,31,10,48,10.10
2015,03,31,10,49,10.10
2015,03,31,10,50,10.10
2015,03,31,10,51,10.10
2015,03,31,10,52,10.20
2015,03,31,10,53,10.20
2015,03,31,10,54,10.20
2015,03,31,10,55,10.20
2015,03,31,10,56,10.20
2015,03,31,10,57,10.20
2015,03,31,10,58,10.30
2015,03,31,10,59,10.30
2015,03,31,11,00,10.30
2015,03,31,11,01,10.30
2015,03,31,11,02,10.30
2015,03,31,11,03,10.40
2015,03,31,11,04,10.40
2015,03,31,11,05,10.40
2015,03,31,11,06,10.50
2015,03,31,11,07,10.60
2015,03,31,11,08,10.50
2015,03,31,11,09,10.50
2015,03,31,11,10,10.40
2015,03,31,11,11,10.40
2015,03,31,11,12,10.40
2015,03,31,11,13,10.50
2015,03,31,11,14,10.60
2015,03,31,11,15,10.60
2015,03,31,11,16,10.60
2015,03,31,11,17,10.60
2015,03,31,11,18,10.60
2015,03,31,11,19,10.60
2015,03,31,11,20,10.60
2015,03,31,11,21,10.50
2015,03,31,11,22,10.60
2015,03,31,11,23,10.60
2015,03,31,11,24,10.70
2015,03,31,11,25,10.70
2015,03,31,11,26,10.70
2015,03,31,11,27,10.70
2015,03,31,11,28,10.80
2015,03,31,11,29,10.80
2015,03,31,11,30,10.80
2015,03,31,11,31,10.80
2015,03,31,11,32,10.80
2015,03,31,11,33,10.80
2015,03,31,11,34,10.80
2015,03,31,11,35,10.70
2015,03,31,11,36,10.70
2015,03,31,11,37,10.60
2015,03,31,11,38,10.60
2015,03,31,11,39,10.70
2015,03,31,11,40,10.70
2015,03,31,11,41,10.80
2015,03,31,11,42,10.80
2015,03,31,11,43,10.90
2015,03,31,11,44,10.90
2015,03,31,11,45,10.90
2015,03,31,11,46,11.00
2015,03,31,11,47,11.00
2015,03,31,11,48,11.10
2015,03,31,11,49,11.20
2015,03,31,11,50,11.30
2015,03,31,11,51,11.30
2015,03,31,11,52,11.40
2015,03,31,11,53,11.60
2015,03,31,11,54,11.60
2015,03,31,11,55,11.70
2015,03,31,11,56,11.60
2015,03,31,11,57,11.60
2015,03,31,11,58,11.60
2015,03,31,11,59,11.60
2015,03,31,12,00,11.50
2015,03,31,12,01,11.50
2015,03,31,12,02,11.40
2015,03,31,12,03,11.40
2015,03,31,12,04,11.40
2015,03,31,12,05,11.40
2015,03,31,12,06,11.30
2015,03,31,12,07,11.40
2015,03,31,12,08,11.40
2015,03,31,12,09,11.50
2015,03,31,12,10,11.60
2015,03,31,12,11,11.60
2015,03,31,12,12,11.70
2015,03,31,12,13,11.70
2015,03,31,12,14,11.70
2015,03,31,12,15,11.70
2015,03,31,12,16,11.70
2015,03,31,12,17,11.70
2015,03,31,12,18,11.70
2015,03,31,12,19,11.70
2015,03,31,12,20,11.70
2015,03,31,12,21,11.80
2015,03,31,12,22,11.80
2015,03,31,12,23,11.80
2015,03,31,12,24,11.80
2015,03,31,12,25,11.80
2015,03,31,12,26,11.80
2015,03,31,12,27,11.80
2015,03,31,12,28,11.70
2015,03,31,12,29,11.70
2015,03,31,12,30,11.70
2015,03,31,12,31,11.60
2015,03,31,12,32,11.60
2015,03,31,12,33,11.70
2015,03,31,12,34,11.70
2015,03,31,12,35,11.80
2015,03,31,12,36,11.80
2015,03,31,12,37,11.90
2015,03,31,12,38,12.00
2015,03,31,12,39,12.10
2015,03,31,12,40,12.10
2015,03,31,12,41,12.10
2015,03,31,12,42,12.10
2015,03,31,12,43,12.00
2015,03,31,12,44,11.90
2015,03,31,12,45,11.90
2015,03,31,12,46,11.80
2015,03,31,12,47,11.80
2015,03,31,12,48,11.80
2015,03,31,12,49,11.80
2015,03,31,12,50,11.80
2015,03,31,12,51,11.80
2015,03,31,12,52,11.80
2015,03,31,12,53,11.80
2015,03,31,12,54,11.80
2015,03,31,12,55,11.80
2015,03,31,12,56,11.90
2015,03,31,12,57,11.90
2015,03,31,12,58,12.00
2015,03,31,12,59,12.00
2015,03,31,13,00,12.00
2015,03,31,13,01,12.00
2015,03,31,13,02,12.10
2015,03,31,13,03,12.10
2015,03,31,13,04,12.10
2015,03,31,13,05,12.20
2015,03,31,13,06,12.20
2015,03,31,13,07,12.30
2015,03,31,13,08,12.30
2015,03,31,13,09,12.40
2015,03,31,13,10,12.40
2015,03,31,13,11,12.40
2015,03,31,13,12,12.40
2015,03,31,13,13,12.50
2015,03,31,13,14,12.60
2015,03,31,13,15,12.70
2015,03,31,13,16,12.70
2015,03,31,13,17,12.70
2015,03,31,13,18,12.60
2015,03,31,13,19,12.60
2015,03,31,13,20,12.60
2015,03,31,13,21,12.60
2015,03,31,13,22,12.70
2015,03,31,13,23,12.80
2015,03,31,13,24,12.90
2015,03,31,13,25,13.00
2015,03,31,13,26,13.10
2015,03,31,13,27,13.10
2015,03,31,13,28,13.10
2015,03,31,13,29,13.00
2015,03,31,13,30,12.90
2015,03,31,13,31,12.80
2015,03,31,13,32,12.90
2015,03,31,13,33,12.80
2015,03,31,13,34,12.80
2015,03,31,13,35,12.70
2015,03,31,13,36,12.60
2015,03,31,13,37,12.40
2015,03,31,13,38,12.30
2015,03,31,13,39,12.10
2015,03,31,13,40,11.90
2015,03,31,13,41,11.80
2015,03,31,13,42,11.70
2015,03,31,13,43,11.50
2015,03,31,13,44,11.40
2015,03,31,13,45,11.30
2015,03,31,13,46,11.20
2015,03,31,13,47,11.20
2015,03,31,13,48,11.10
2015,03,31,13,49,11.10
2015,03,31,13,50,11.10
2015,03,31,13,51,11.10
2015,03,31,13,52,11.10
2015,03,31,13,53,11.20
2015,03,31,13,54,11.20
2015,03,31,13,55,11.20
2015,03,31,13,56,11.30
2015,03,31,13,57,11.30
2015,03,31,13,58,11.40
2015,03,31,13,59,11.50
2015,03,31,14,00,11.60
2015,03,31,14,01,11.70
2015,03,31,14,02,11.80
2015,03,31,14,03,11.80
2015,03,31,14,04,11.80
2015,03,31,14,05,11.70
2015,03,31,14,06,11.70
2015,03,31,14,07,11.60
2015,03,31,14,08,11.60
2015,03,31,14,09,11.60
2015,03,31,14,10,11.60
2015,03,31,14,11,11.60
2015,03,31,14,12,11.70
2015,03,31,14,13,11.70
2015,03,31,14,14,11.80
2015,03,31,14,15,11.80
2015,03,31,14,16,11.90
2015,03,31,14,17,11.90
2015,03,31,14,18,11.90
2015,03,31,14,19,11.80
2015,03,31,14,20,11.80
2015,03,31,14,21,11.70
2015,03,31,14,22,11.70
2015,03,31,14,23,11.70
2015,03,31,14,24,11.60
2015,03,31,14,25,11.60
2015,03,31,14,26,11.60
2015,03,31,14,27,11.50
2015,03,31,14,28,11.50
2015,03,31,14,29,11.40
2015,03,31,14,30,11.40
2015,03,31,14,31,11.40
2015,03,31,14,32,11.30
2015,03,31,14,33,11.30
2015,03,31,14,34,11.30
2015,03,31,14,35,11.30
2015,03,31,14,36,11.30
2015,03,31,14,37,11.30
2015,03,31,14,38,11.30
2015,03,31,14,39,11.30
2015,03,31,14,40,11.30
2015,03,31,14,41,11.30
2015,03,31,14,42,11.40
2015,03,31,14,43,11.40
2015,03,31,14,44,11.40
2015,03,31,14,45,11.40
2015,03,31,14,46,11.40
2015,03,31,14,47,11.40
2015,03,31,14,48,11.40
2015,03,31,14,49,11.30
2015,03,31,14,50,11.30
2015,03,31,14,51,11.30
2015,03,31,14,52,11.40
2015,03,31,14,53,11.30
2015,03,31,14,54,11.30
2015,03,31,14,55,11.20
2015,03,31,14,56,11.20
2015,03,31,14,57,11.10
2015,03,31,14,58,11.10
2015,03,31,14,59,11.10
2015,03,31,15,00,11.00
2015,03,31,15,01,11.00
2015,03,31,15,02,11.00
2015,03,31,15,03,11.00
2015,03,31,15,04,11.00
2015,03,31,15,05,11.10
2015,03,31,15,06,11.10
2015,03,31,15,07,11.10
2015,03,31,15,08,11.00
2015,03,31,15,09,10.90
2015,03,31,15,10,10.90
2015,03,31,15,11,10.90
2015,03,31,15,12,10.90
2015,03,31,15,13,10.80
2015,03,31,15,14,10.80
2015,03,31,15,15,10.80
2015,03,31,15,16,10.80
2015,03,31,15,17,10.80
2015,03,31,15,18,10.80
2015,03,31,15,19,10.80
2015,03,31,15,20,10.70
2015,03,31,15,21,10.60
2015,03,31,15,22,10.50
2015,03,31,15,23,10.50
2015,03,31,15,24,10.40
2015,03,31,15,25,10.40
2015,03,31,15,26,10.40
2015,03,31,15,27,10.40
2015,03,31,15,28,10.40
2015,03,31,15,29,10.50
2015,03,31,15,30,10.50
2015,03,31,15,31,10.50
2015,03,31,15,32,10.50
2015,03,31,15,33,10.40
2015,03,31,15,34,10.30
2015,03,31,15,35,10.20
2015,03,31,15,36,10.00
2015,03,31,15,37,9.90
2015,03,31,15,38,9.80
2015,03,31,15,39,9.70
2015,03,31,15,40,9.60
2015,03,31,15,41,9.60
2015,03,31,15,42,9.60
2015,03,31,15,43,9.50
2015,03,31,15,44,9.50
2015,03,31,15,45,9.40
2015,03,31,15,46,9.40
2015,03,31,15,47,9.40
2015,03,31,15,48,9.40
2015,03,31,15,49,9.40
2015,03,31,15,50,9.40
2015,03,31,15,51,9.40
2015,03,31,15,52,9.40
2015,03,31,15,53,9.40
2015,03,31,15,54,9.40
2015,03,31,15,55,9.50
2015,03,31,15,56,9.50
2015,03,31,15,57,9.60
2015,03,31,15,58,9.60
2015,03,31,15,59,9.70
2015,03,31,16,00,9.70
2015,03,31,16,01,9.70
2015,03,31,16,02,9.70
2015,03,31,16,03,9.80
2015,03,31,16,04,9.90
2015,03,31,16,05,9.90
2015,03,31,16,06,10.00
2015,03,31,16,07,10.10
2015,03,31,16,08,10.10
2015,03,31,16,09,10.00
2015,03,31,16,10,10.00
2015,03,31,16,11,9.90
2015,03,31,16,12,9.90
2015,03,31,16,13,9.90
2015,03,31,16,14,9.90
2015,03,31,16,15,9.90
2015,03,31,16,16,10.00
2015,03,31,16,17,10.00
2015,03,31,16,18,10.10
2015,03,31,16,19,10.10
2015,03,31,16,20,10.10
2015,03,31,16,21,10.10
2015,03,31,16,22,10.10
2015,03,31,16,23,10.10
2015,03,31,16,24,10.10
2015,03,31,16,25,10.10
2015,03,31,16,26,10.10
2015,03,31,16,27,10.10
2015,03,31,16,28,10.10
2015,03,31,16,29,10.10
2015,03,31,17,03,8.70
2015,03,31,17,04,8.80
2015,03,31,17,05,8.80
2015,03,31,17,06,8.90
2015,03,31,17,07,9.00
2015,03,31,17,08,9.10
2015,03,31,17,09,9.20
2015,03,31,17,10,9.40
2015,03,31,17,11,9.50
2015,03,31,17,12,9.60
2015,03,31,17,13,9.70
2015,03,31,17,14,9.80
2015,03,31,17,15,9.90
2015,03,31,17,16,9.90
2015,03,31,17,17,9.90
2015,03,31,17,18,9.80
2015,03,31,17,19,9.80
2015,03,31,17,20,9.70
2015,03,31,17,21,9.70
2015,03,31,17,22,9.70
2015,03,31,17,23,9.80
2015,03,31,17,24,9.80
2015,03,31,17,25,10.00
2015,03,31,17,26,10.10
2015,03,31,17,27,10.10
2015,03,31,17,28,10.20
2015,03,31,17,29,10.20
2015,03,31,17,30,10.20
2015,03,31,17,31,10.20
2015,03,31,17,32,10.10
2015,03,31,17,33,10.00
2015,03,31,17,34,9.90
2015,03,31,17,35,9.90
2015,03,31,17,36,9.80
2015,03,31,17,37,9.80
2015,03,31,17,38,9.90
2015,03,31,17,39,10.00
2015,03,31,17,40,10.00
2015,03,31,17,41,10.10
2015,03,31,17,42,10.10
2015,03,31,17,43,10.00
2015,03,31,17,44,9.90
2015,03,31,17,45,9.90
2015,03,31,17,46,9.80
2015,03,31,17,47,9.80
2015,03,31,17,48,9.70
2015,03,31,17,49,9.70
2015,03,31,17,50,9.70
2015,03,31,17,51,9.70
2015,03,31,17,52,9.60
2015,03,31,17,53,9.60
2015,03,31,17,54,9.60
2015,03,31,17,55,9.50
2015,03,31,17,56,9.50
2015,03,31,17,57,9.50
2015,03,31,17,58,9.50
2015,03,31,17,59,9.40
2015,03,31,18,00,9.40
2015,03,31,18,01,9.30
2015,03,31,18,02,9.30
2015,03,31,18,03,9.30
2015,03,31,18,04,9.30
2015,03,31,18,05,9.20
2015,03,31,18,06,9.20
2015,03,31,18,07,9.20
2015,03,31,18,08,9.10
2015,03,31,18,09,9.10
2015,03,31,18,10,9.10
2015,03,31,18,11,9.10
2015,03,31,18,12,9.20
2015,03,31,18,13,9.20
2015,03,31,18,14,9.20
2015,03,31,18,15,9.20
2015,03,31,18,16,9.20
2015,03,31,18,17,9.10
2015,03,31,18,18,9.10
2015,03,31,18,19,9.10
2015,03,31,18,20,9.10
2015,03,31,18,21,9.10
2015,03,31,18,22,9.10
2015,03,31,18,23,9.10
2015,03,31,18,24,9.10
2015,03,31,18,25,9.10
2015,03,31,18,26,9.10
2015,03,31,18,27,9.10
2015,03,31,18,28,9.10
2015,03,31,18,29,9.10
2015,03,31,18,30,9.10
2015,03,31,18,31,9.10
2015,03,31,18,32,9.10
2015,03,31,18,33,9.10
2015,03,31,18,34,9.10
2015,03,31,18,35,9.10
2015,03,31,18,36,9.10
2015,03,31,18,37,9.10
2015,03,31,18,38,9.10
2015,03,31,18,39,9.10
2015,03,31,18,40,9.10
2015,03,31,18,41,9.10
2015,03,31,18,42,9.10
2015,03,31,18,43,9.10
2015,03,31,18,44,9.10
2015,03,31,18,45,9.10
2015,03,31,18,46,9.10
2015,03,31,18,47,9.10
2015,03,31,18,48,9.10
2015,03,31,18,49,9.10
2015,03,31,18,50,9.10
2015,03,31,18,51,9.10
2015,03,31,18,52,9.10
